User: anonymous   Login
Location: SAPM � Hemmingford
(45.0500°N, 73.5833°W)
Time: 14:00:17
(UTC-05:00)
Language:

Cosmos 1603 - Orbit

View from above orbital plane
View from above orbital plane
View from above satellite
View from above satellite

Ground track
Ground track

The orbit data is extracted from the following two-line orbital elements,

1 15333U 84106A   14324.84541508 -.00000136  00000-0 -46538-4 0  1335
2 15333 071.0286 259.1935 0020226 204.9606 217.4599 14.13967584555486
Epoch (UTC): 20 November 2014 20:17:23
Eccentricity: 0.0020226
inclination: 71.0286°
perigee height: 831 km
apogee height: 860 km
right ascension of ascending node: 259.1935°
argument of perigee: 204.9606°
revolutions per day: 14.13967584
mean anomaly at epoch: 217.4599°
orbit number at epoch: 55548

The dashed part of the orbit path shows where the satellite is in the earth's shadow,  

DLR